Hourly Data Report for April 26, 2018

KUGAARUK CLIMATE
NUNAVUT
Current Station Operator: ECCC - MSC

68°32'15.060" N
89°47'47.020" W
15.80 m
2303094
71407
NBB

Download Data

Hourly Data (April 2018)
Hourly Data Report for April 26, 2018
TIME
LST
Temp Definition
°C
Dew Point Definition
°C
Rel Hum Definition
%
Precip. Amount Definition
mm

Wind Dir Definition
10's deg

Wind Spd Definition
km/h
Visibility Definition
km
Stn Press Definition
kPa
Hmdx Definition


Wind Chill Definition


Weather Definition


00:00 -27.5 -30.4 76 0.0 25 11   101.25   -37 LegendNANA
01:00 -27.1 -30.1 76 0.0 25 11   101.27   -36 LegendNANA
02:00 -27.7 -30.7 75 0.0 24 9   101.26   -36 LegendNANA
03:00 -28.8 -31.9 75 0.0 25 11   101.27   -38 LegendNANA
04:00 -28.1 -31.3 74 0.0 25 15   101.27   -39 LegendNANA
05:00 -28.1 -31.4 74 0.0 26 12   101.30   -38 LegendNANA
06:00 -27.4 -31.1 71 0.0 26 10   101.29   -36 LegendNANA
07:00 -26.5 -30.9 67 0.0 27 13   101.31   -36 LegendNANA
08:00 -24.9 -29.5 66 0.0 27 14   101.32   -35 LegendNANA
09:00 -24.0 -28.7 65 0.0 25 15   101.32   -34 LegendNANA
10:00 -23.2 -28.3 63 0.0 27 16   101.32   -33 LegendNANA
11:00 -21.8 -27.6 60 0.0 26 12   101.35   -30 LegendNANA
12:00 -20.3 -27.1 54 0.0 26 7   101.35   -26 LegendNANA
13:00 -18.9 -25.1 58 0.0 29 11   101.35   -26 LegendNANA
14:00 -19.1 -25.1 59 0.0 28 15   101.36   -28 LegendNANA
15:00 -19.1 -24.9 60 0.0 28 18   101.36   -29 LegendNANA
16:00 -19.4 -24.6 63 0.0 28 18   101.35   -29 LegendNANA
17:00 -20.5 -24.9 68 0.0 27 19   101.34   -31 LegendNANA
18:00 -21.8 -25.5 72 0.0 25 18   101.34   -32 LegendNANA
19:00 -22.8 -26.1 74 0.0 24 13   101.32   -32 LegendNANA
20:00 -22.6 -25.6 77 0.0 25 16   101.26   -33 LegendNANA
21:00 -21.3 -24.3 77 0.0 25 15   101.21   -31 LegendNANA
22:00 -21.0 -23.7 79 0.0 25 11   101.19   -29 LegendNANA
23:00 -20.1 -22.6 81 0.0 26 10   101.14   -27 LegendNANA

Notes on Data Quality.

Legend

  • E = Estimated
  • M = Missing
  • NA = Not Available*
  • [empty] = Indicates an unobserved value
Date modified: